Home   Weather   Bandar-Abbas   Past weeks

Flag for Iran Past Weather in Bandar-Abbas, Iran — Yesterday and Last 2 Weeks

Now
68 °F

Haze.


Feels Like: 68 °F
Forecast: 60 / 75 °F
Wind: 9 mph from Southwest

Location: Bandarabbass

Current Time: Feb 22, 2017 at 9:14:40 pm

Latest Report: Feb 22, 2017 at 8:30 pm


Visibility: 2 mi

Pressure: 30.01 "Hg

Humidity: 78%

Dew Point: 61 °F

Location of Bandar-AbbasLocation

Past Weather in Bandar-Abbas — Graph

°F

Bandar-Abbas Temperature Yesterday

Maximum temperature yesterday: 73 °F (at 1:00 pm)
Minimum temperature yesterday: 55 °F (at 4:30 am)
Average temperature yesterday: 65 °F

High & Low Weather Summary for the Past Weeks

 TemperatureHumidityPressure
High79 °F (Feb 8, 2:30 pm)100% (Feb 15, 1:00 am)30.24 "Hg (Feb 15, 1:00 am)
Low50 °F (Feb 9, 5:30 am)20% (Feb 9, 12:30 pm)29.86 "Hg (Feb 17, 4:00 pm)
Average67 °F74%30.04 "Hg
* Reported Feb 7 7:30 pm — Feb 22 8:00 pm, Bandar-Abbas, Weather by CustomWeather, © 2017

Note: Actual official high and low records may vary slightly from our data, if they occured in-between our weather recording intervals... More about our weather records

Advertising

Bandar-Abbas Weather History for the Previous 24 Hours

Scroll right to see more
 ConditionsComfort  
Time TempWeatherWind HumidityBarometerVisibility
8:00 pm
Wed, Feb 22
68 °FHaze.12 mph78%29.98 "Hg2 mi
7:30 pm70 °FHaze.9 mph73%29.98 "Hg2 mi
7:00 pm70 °FHaze.12 mph78%29.98 "Hg2 mi
6:30 pm70 °FHaze.12 mph78%29.95 "Hg2 mi
6:00 pm70 °FHaze.12 mph78%29.95 "Hg2 mi
5:30 pm72 °FHaze.9 mph69%29.95 "Hg2 mi
5:00 pm72 °FHaze.14 mph73%29.95 "Hg2 mi
4:30 pm72 °FHaze.14 mph73%29.95 "Hg2 mi
4:00 pm72 °FHaze.14 mph69%29.95 "Hg2 mi
3:30 pm72 °FHaze.14 mph69%29.95 "Hg2 mi
3:00 pm73 °FHaze.14 mph65%29.95 "Hg2 mi
2:30 pm73 °FHaze.9 mph61%29.95 "Hg2 mi
2:00 pm73 °FHaze.9 mph57%29.95 "Hg2 mi
1:30 pm73 °FHaze.14 mph57%29.98 "Hg2 mi
1:00 pm72 °FHaze.14 mph65%29.98 "Hg2 mi
12:30 pm73 °FHaze.12 mph65%30.01 "Hg3 mi
12:00 pm72 °FHaze.9 mph69%30.01 "Hg3 mi
11:30 am72 °FHaze.7 mph69%30.01 "Hg3 mi
11:00 am72 °FHaze.7 mph65%30.04 "Hg3 mi
10:30 am70 °FHaze.5 mph64%30.04 "Hg3 mi
10:00 am70 °FHaze.No wind64%30.04 "Hg3 mi
9:30 am68 °FHaze.No wind69%30.04 "Hg3 mi
9:00 am66 °FHaze.No wind73%30.04 "Hg2 mi
8:30 am64 °FHaze.5 mph78%30.04 "Hg2 mi
8:00 am63 °FHaze.5 mph77%30.01 "Hg2 mi
7:30 am59 °FFog.5 mph94%30.01 "Hg1 mi
7:00 am57 °FFog.5 mph94%29.98 "Hg1 mi
6:30 am57 °FFog.9 mph94%29.98 "Hg1 mi
6:00 am55 °FFog.9 mph94%29.98 "Hg1 mi
5:30 am55 °FFog.5 mph94%29.95 "Hg2 mi
4:30 am55 °FFog.7 mph94%29.95 "Hg2 mi
3:30 am57 °FFog.5 mph94%29.95 "Hg2 mi
2:30 am59 °FFog.5 mph88%29.95 "Hg2 mi
1:30 am61 °FFog.No wind94%29.95 "Hg3 mi
1:00 am64 °FFog.7 mph83%29.98 "Hg3 mi
12:30 am64 °FFog.7 mph83%29.98 "Hg3 mi
12:00 am64 °FClear.7 mph83%29.98 "Hg3 mi
11:30 pm
Tue, Feb 21
64 °FClear.7 mph83%29.98 "Hg3 mi
11:00 pm64 °FClear.5 mph83%29.98 "Hg4 mi
10:30 pm64 °FClear.5 mph83%29.98 "Hg5 mi
10:00 pm66 °FClear.7 mph78%30.01 "Hg5 mi
9:30 pm66 °FClear.7 mph78%30.01 "Hg5 mi
9:00 pm66 °FClear.7 mph78%29.98 "Hg5 mi
Weather by CustomWeather, © 2017

See weather overviewHow to use our weather pages